Location: Catstown
(52.4386°N, 7.2633°W)
Time: 03:59:31
(UTC+00:00)

CREW DRAGON DEMO-1 DEB - Pass Details

Date: 18 September 2020
Orbit: 362 x 365 km, 51.6° (Epoch: 18 October)

Event Time Altitude Azimuth Distance (km) Brightness Sun altitude
Rises 20:14:15 0° 272° (W) 2,200 8.1 -15.3°
Reaches altitude 10° 20:16:16 10° 271° (W) 1,353 6.7 -15.6°
Maximum altitude 20:19:17 75° 186° (S) 382 2.7 -16.0°
Enters shadow 20:19:55 51° 116° (ESE) 468 2.8 -16.1°
